Change the Weather History Date:

Monday, December 26, 2011

  Actual Average Record
Temperature  
Mean Temperature 23 °F 21 °F  
Max Temperature 34 °F 32 °F 53 °F (1980)
Min Temperature 12 °F 10 °F -28 °F (1987)
Degree Days  
Heating Degree Days 42 44  
Month to date heating degree days 1411 1136  
Since 1 July heating degree days 3493 3448  
Cooling Degree Days 0 0  
Month to date cooling degree days 0 0  
Year to date cooling degree days 126 67  
Moisture  
Dew Point 12 °F    
Average Humidity 53    
Maximum Humidity 67    
Minimum Humidity 38    
Precipitation  
Precipitation 0.00 in 0.01 in 0.12 in (1987)
Month to date precipitation 0.06 0.27  
Year to date precipitation 10.42 10.87  
Sea Level Pressure  
Sea Level Pressure 30.14 in    
Wind  
Wind Speed 12 mph (WSW)    
Max Wind Speed 33 mph    
Max Gust Speed 45 mph    
Visibility 10 miles    
Events      
T = Trace of Precipitation, MM = Missing Value Source: NWS Daily Summary

Daily Weather History Graph

Daily Weather History Graph

Search for Another Location

Airport or City:

Trip Planner

Search our weather history database for the weather conditions in past years. The results will help you decide how hot, cold, wet, or windy it might be!

Date:

Astronomy

Dec. 26, 2011 Rise Set
Actual Time 7:27 AM MST 4:39 PM MST
Civil Twilight 6:55 AM MST 5:10 PM MST
Nautical Twilight 6:21 AM MST 5:45 PM MST
Astronomical Twilight 5:47 AM MST 6:19 PM MST
Moon 8:47 AM MST (12/26) 7:11 PM MST (12/26)
Length of Visible Light 10h 14m
Length of Day
9h 12m
Waxing Crescent, 5% of the Moon is Illuminated
Dec 26
Waxing Crescent
Dec 31
First Quarter
Jan 9
Full
Jan 16
Last Quarter
Jan 23
New

Hourly Weather History & Observations

Time (MST) Temp. Windchill Dew Point Humidity Pressure Visibility Wind Dir Wind Speed Gust Speed Precip Events Conditions
12:53 AM 30.9 °F 15.5 °F 18.0 °F 59% 30.08 in 10.0 mi SW 33.4 mph - N/A   Clear
1:53 AM 28.9 °F 18.6 °F 17.1 °F 61% 30.12 in 10.0 mi SSW 12.7 mph - N/A   Clear
2:53 AM 32.0 °F 24.8 °F 17.1 °F 54% 30.07 in 10.0 mi SSW 8.1 mph - N/A   Clear
3:53 AM 33.1 °F 21.2 °F 17.1 °F 52% 30.06 in 10.0 mi SW 20.7 mph 26.5 mph N/A   Clear
5:53 AM 28.9 °F 13.5 °F 12.0 °F 49% 30.10 in 10.0 mi WSW 29.9 mph 35.7 mph N/A   Clear
6:53 AM 28.0 °F 15.7 °F 12.9 °F 53% 30.11 in 10.0 mi West 17.3 mph 23.0 mph N/A   Clear
7:53 AM 27.0 °F 10.3 °F 12.9 °F 56% 30.13 in 8.0 mi WNW 32.2 mph 40.3 mph N/A   Clear
8:53 AM 26.1 °F 14.0 °F 10.9 °F 53% 30.15 in 10.0 mi WNW 15.0 mph - N/A   Clear
9:53 AM 27.0 °F 17.3 °F 12.9 °F 56% 30.14 in 10.0 mi SW 10.4 mph - N/A   Clear
10:53 AM 28.9 °F 17.3 °F 15.1 °F 56% 30.08 in 10.0 mi WSW 16.1 mph - N/A   Clear
11:53 AM 32.0 °F 26.4 °F 14.0 °F 48% 30.06 in 10.0 mi WNW 5.8 mph - N/A   Clear
12:53 PM 34.0 °F 28.0 °F 10.9 °F 38% 30.06 in 10.0 mi North 6.9 mph - N/A   Clear
1:53 PM 30.0 °F 20.0 °F 15.1 °F 54% 30.09 in 10.0 mi NW 12.7 mph - N/A   Clear
2:53 PM 26.1 °F 15.6 °F 14.0 °F 60% 30.11 in 10.0 mi WSW 11.5 mph - N/A   Clear
3:53 PM 24.1 °F 15.2 °F 9.0 °F 53% 30.11 in 10.0 mi West 8.1 mph - N/A   Clear
4:53 PM 19.0 °F - 6.1 °F 57% 30.19 in 10.0 mi Calm Calm - N/A   Clear
5:53 PM 17.1 °F - 8.1 °F 68% 30.22 in 10.0 mi Calm Calm - N/A   Clear
6:53 PM 15.1 °F 4.2 °F 6.1 °F 68% 30.24 in 10.0 mi SE 8.1 mph - N/A   Clear
7:53 PM 19.0 °F 10.0 °F 7.0 °F 59% 30.25 in 10.0 mi NNE 6.9 mph - N/A   Partly Cloudy
8:53 PM 17.1 °F 7.6 °F 8.1 °F 68% 30.26 in 10.0 mi East 6.9 mph - N/A   Mostly Cloudy
9:53 PM 21.9 °F - 9.0 °F 58% 30.23 in 10.0 mi Calm Calm - N/A   Partly Cloudy
10:53 PM 19.9 °F 11.1 °F 7.0 °F 57% 30.22 in 10.0 mi SSW 6.9 mph - N/A   Clear
11:53 PM 19.9 °F - 6.1 °F 55% 30.19 in 10.0 mi Calm Calm - N/A   Clear